Ephrata, WA

8:21 PM PDT on July 20, 2017 (GMT -0700)
Ephrata Municipal

Weather History for KEPH - January, 2014

Change the Weather History Date:

Tuesday, January 14, 2014

  Actual Average Record
Temperature  
Mean Temperature 40 °F 28 °F  
Max Temperature 51 °F 35 °F 57 °F (1999)
Min Temperature 29 °F 22 °F -13 °F (1950)
Degree Days  
Heating Degree Days 25 37  
Month to date heating degree days 432 527  
Since 1 July heating degree days 3017 3113  
Cooling Degree Days 0 0  
Month to date cooling degree days 0 0  
Year to date cooling degree days 0 0  
Moisture  
Dew Point 32 °F    
Average Humidity 71    
Maximum Humidity 92    
Minimum Humidity 50    
Precipitation  
Precipitation 0.00 in 0.03 in 0.56 in (1968)
Month to date precipitation 0.02 0.46  
Year to date precipitation 0.02 0.46  
Sea Level Pressure  
Sea Level Pressure 30.55 in    
Wind  
Wind Speed 5 mph (NNE)    
Max Wind Speed 17 mph    
Max Gust Speed 22 mph    
Visibility 10 miles    
Events      
T = Trace of Precipitation, MM = Missing Value Source: NWS Daily Summary

Daily Weather History Graph

Daily Weather History Graph

Search for Another Location

Airport or City:

Trip Planner

Search our weather history database for the weather conditions in past years. The results will help you decide how hot, cold, wet, or windy it might be!

Date:

Astronomy

Jan. 14, 2014 Rise Set
Actual Time 7:41 AM PST 4:33 PM PST
Civil Twilight 7:06 AM PST 5:08 PM PST
Nautical Twilight 6:28 AM PST 5:46 PM PST
Astronomical Twilight 5:51 AM PST 6:23 PM PST
Moon 3:45 PM PST (1/14) 6:17 AM PST (1/14)
Length of Visible Light 10h 01m
Length of Day
8h 52m
Waxing Gibbous, 98% of the Moon is Illuminated
Jan 14
Waxing Gibbous
Jan 15
Full
Jan 23
Last Quarter
Jan 30
New
Feb 6
First Quarter

Hourly Weather History & Observations

Time (PST) Temp. Windchill Dew Point Humidity Pressure Visibility Wind Dir Wind Speed Gust Speed Precip Events Conditions
12:53 AM 48.9 °F - 33.1 °F 54% 30.48 in 10.0 mi Variable 5.8 mph - N/A   Scattered Clouds
1:53 AM 50.0 °F - 33.1 °F 52% 30.49 in 10.0 mi WNW 3.5 mph 16.1 mph N/A   Mostly Cloudy
2:53 AM 50.0 °F - 32.0 °F 50% 30.52 in 10.0 mi Variable 5.8 mph 16.1 mph N/A   Clear
3:53 AM 39.0 °F 36.8 °F 30.0 °F 70% 30.54 in 10.0 mi SSE 3.5 mph - N/A   Clear
4:53 AM 30.9 °F 26.2 °F 28.0 °F 89% 30.56 in 10.0 mi North 4.6 mph - N/A   Clear
5:53 AM 32.0 °F 25.6 °F 28.9 °F 88% 30.58 in 10.0 mi NNE 6.9 mph - N/A   Clear
6:53 AM 32.0 °F 26.4 °F 28.9 °F 88% 30.58 in 10.0 mi NNE 5.8 mph - N/A   Clear
7:53 AM 30.9 °F 23.5 °F 28.9 °F 92% 30.61 in 10.0 mi North 8.1 mph - N/A   Clear
8:53 AM 36.0 °F 30.3 °F 32.0 °F 86% 30.63 in 10.0 mi NNE 6.9 mph - N/A   Clear
9:53 AM 39.0 °F 34.0 °F 32.0 °F 76% 30.63 in 10.0 mi NNE 6.9 mph - N/A   Clear
10:53 AM 43.0 °F 40.3 °F 34.0 °F 71% 30.61 in 10.0 mi NNE 4.6 mph - N/A   Clear
11:53 AM 45.0 °F 43.5 °F 35.1 °F 68% 30.59 in 10.0 mi North 3.5 mph - N/A   Clear
12:53 PM 48.0 °F - 35.1 °F 61% 30.56 in 10.0 mi Calm Calm - N/A   Clear
1:53 PM 48.9 °F - 35.1 °F 59% 30.55 in 10.0 mi Calm Calm - N/A   Clear
2:53 PM 50.0 °F - 35.1 °F 57% 30.54 in 10.0 mi NE 3.5 mph - N/A   Clear
3:53 PM 46.9 °F - 35.1 °F 63% 30.55 in 10.0 mi NNW 3.5 mph - N/A   Clear
4:53 PM 43.0 °F 40.3 °F 33.1 °F 68% 30.55 in 10.0 mi NNE 4.6 mph - N/A   Clear
5:53 PM 39.0 °F 36.8 °F 32.0 °F 76% 30.53 in 10.0 mi NNW 3.5 mph - N/A   Clear
6:53 PM 37.0 °F - 30.9 °F 79% 30.53 in 10.0 mi Calm Calm - N/A   Clear
7:53 PM 34.0 °F 28.8 °F 28.9 °F 82% 30.53 in 10.0 mi NNE 5.8 mph - N/A   Clear
8:53 PM 33.1 °F 27.7 °F 28.9 °F 85% 30.51 in 10.0 mi North 5.8 mph - N/A   Clear
9:53 PM 35.1 °F 29.3 °F 30.9 °F 85% 30.50 in 10.0 mi North 6.9 mph - N/A   Clear
10:53 PM 33.1 °F 26.9 °F 30.0 °F 89% 30.49 in 10.0 mi NNE 6.9 mph - N/A   Clear
11:53 PM 32.0 °F 26.4 °F 30.0 °F 92% 30.47 in 10.0 mi NNE 5.8 mph - N/A   Clear